| time (UTC) | temp F | wind direction | speed MPH | gust MPH | rain 1hr in | rain 24hr in | rain mn in | humidity % | barometer mb |
| 20260509151017 | 74 | 0.0 | 2.0 | 0.00 | 0.00 | 0.00 | 24 | 1024.8 | |
| 20260509150037 | 73 | 0.0 | 3.0 | 0.00 | 0.00 | 0.00 | 26 | 1024.7 | |
| 20260509145017 | 71 | 0.0 | 4.0 | 0.00 | 0.00 | 0.00 | 28 | 1024.2 | |
| 20260509144017 | 70 | 248 | 1.0 | 3.0 | 0.00 | 0.00 | 0.00 | 29 | 1024.8 |
| 20260509143017 | 67 | 270 | 1.0 | 3.0 | 0.00 | 0.00 | 0.00 | 30 | 1024.3 |
| 20260509142017 | 65 | 0.0 | 3.0 | 0.00 | 0.00 | 0.00 | 32 | 1023.7 | |
| 20260509141037 | 62 | 0.0 | 2.0 | 0.00 | 0.00 | 0.00 | 34 | 1024.2 | |
| 20260509140017 | 60 | 0.0 | 2.0 | 0.00 | 0.00 | 0.00 | 35 | 1023.6 | |
| 20260509135037 | 58 | 270 | 1.0 | 4.0 | 0.00 | 0.00 | 0.00 | 36 | 1023.1 |
| 20260509134017 | 56 | 0.0 | 3.0 | 0.00 | 0.00 | 0.00 | 37 | 1023.6 | |
| 20260509133017 | 55 | 0.0 | 2.0 | 0.00 | 0.00 | 0.00 | 37 | 1023.1 | |
| 20260509132017 | 55 | 270 | 1.0 | 6.0 | 0.00 | 0.00 | 0.00 | 36 | 1023.2 |
| 20260509131017 | 56 | 270 | 4.0 | 8.0 | 0.00 | 0.00 | 0.00 | 34 | 1023.7 |
| 20260509130037 | 54 | 270 | 4.0 | 7.0 | 0.00 | 0.00 | 0.00 | 35 | 1023.1 |
| 20260509125037 | 53 | 270 | 4.0 | 9.0 | 0.00 | 0.00 | 0.00 | 35 | 1023.0 |
| 20260509124017 | 52 | 270 | 4.0 | 10.0 | 0.00 | 0.00 | 0.00 | 36 | 1023.3 |
| 20260509123057 | 51 | 270 | 4.0 | 7.0 | 0.00 | 0.00 | 0.00 | 37 | 1023.2 |
| 20260509122016 | 49 | 270 | 2.0 | 7.0 | 0.00 | 0.00 | 0.00 | 40 | 1022.7 |
| 20260509121017 | 48 | 203 | 2.0 | 4.0 | 0.00 | 0.00 | 0.00 | 42 | 1021.8 |
| 20260509120037 | 46 | 203 | 2.0 | 4.0 | 0.00 | 0.00 | 0.00 | 43 | 1021.7 |
| 20260509115017 | 46 | 248 | 2.0 | 5.0 | 0.00 | 0.00 | 0.00 | 43 | 1021.6 |
| 20260509114017 | 47 | 270 | 2.0 | 5.0 | 0.00 | 0.00 | 0.00 | 42 | 1022.0 |
| 20260509113016 | 47 | 270 | 1.0 | 3.0 | 0.00 | 0.00 | 0.00 | 42 | 1022.2 |
| 20260509112037 | 48 | 270 | 2.0 | 4.0 | 0.00 | 0.00 | 0.00 | 41 | 1022.1 |
| 20260509111017 | 49 | 270 | 1.0 | 4.0 | 0.00 | 0.00 | 0.00 | 40 | 1022.2 |
| 20260509110017 | 50 | 270 | 1.0 | 3.0 | 0.00 | 0.00 | 0.00 | 39 | 1022.2 |
| 20260509105017 | 49 | 0.0 | 3.0 | 0.00 | 0.00 | 0.00 | 40 | 1022.3 | |
| 20260509104017 | 50 | 270 | 1.0 | 3.0 | 0.00 | 0.00 | 0.00 | 40 | 1023.3 |
| 20260509103016 | 50 | 0.0 | 2.0 | 0.00 | 0.00 | 0.00 | 39 | 1023.2 | |
| 20260509102016 | 49 | 0.0 | 1.0 | 0.00 | 0.00 | 0.00 | 41 | 1022.8 | |
| 20260509101016 | 48 | 0.0 | 2.0 | 0.00 | 0.00 | 0.00 | 43 | 1022.4 | |
| 20260509100036 | 45 | 0.0 | 1.0 | 0.00 | 0.00 | 0.00 | 46 | 1022.0 | |
| 20260509095016 | 45 | 270 | 1.0 | 2.0 | 0.00 | 0.00 | 0.00 | 47 | 1021.7 |
| 20260509094016 | 45 | 0.0 | 3.0 | 0.00 | 0.00 | 0.00 | 48 | 1021.2 | |
| 20260509093016 | 46 | 0.0 | 3.0 | 0.00 | 0.00 | 0.00 | 47 | 1021.7 | |
| 20260509092016 | 44 | 225 | 1.0 | 3.0 | 0.00 | 0.00 | 0.00 | 49 | 1021.3 |
| 20260509091016 | 44 | 225 | 1.0 | 3.0 | 0.00 | 0.00 | 0.00 | 48 | 1022.2 |
| 20260509090016 | 45 | 225 | 1.0 | 3.0 | 0.00 | 0.00 | 0.00 | 48 | 1022.2 |
| 20260509085016 | 45 | 225 | 1.0 | 4.0 | 0.00 | 0.00 | 0.00 | 48 | 1022.4 |
| 20260509084016 | 45 | 225 | 1.0 | 5.0 | 0.00 | 0.00 | 0.00 | 48 | 1022.4 |
| 20260509083016 | 45 | 248 | 1.0 | 4.0 | 0.00 | 0.00 | 0.00 | 48 | 1022.4 |
| 20260509082016 | 45 | 248 | 1.0 | 3.0 | 0.00 | 0.00 | 0.00 | 48 | 1022.6 |
| 20260509081016 | 45 | 248 | 1.0 | 4.0 | 0.00 | 0.00 | 0.00 | 48 | 1022.7 |
| 20260509080016 | 46 | 248 | 1.0 | 4.0 | 0.00 | 0.00 | 0.00 | 47 | 1022.8 |
| 20260509075016 | 46 | 203 | 1.0 | 5.0 | 0.00 | 0.00 | 0.00 | 47 | 1022.8 |
| 20260509074016 | 46 | 248 | 1.0 | 5.0 | 0.00 | 0.00 | 0.00 | 47 | 1022.4 |
| 20260509073016 | 46 | 270 | 1.0 | 4.0 | 0.00 | 0.00 | 0.00 | 48 | 1022.4 |
| 20260509072016 | 46 | 270 | 1.0 | 3.0 | 0.00 | 0.00 | 0.00 | 48 | 1022.5 |
| 20260509071016 | 47 | 270 | 1.0 | 5.0 | 0.00 | 0.00 | 0.00 | 47 | 1022.1 |
| 20260509070016 | 46 | 270 | 1.0 | 4.0 | 0.00 | 0.00 | 0.00 | 48 | 1022.1 |
| 20260509065016 | 47 | 248 | 1.0 | 4.0 | 0.00 | 0.00 | 0.00 | 47 | 1022.6 |
| 20260509064056 | 48 | 270 | 1.0 | 4.0 | 0.00 | 0.00 | 0.00 | 46 | 1022.6 |
| 20260509063016 | 47 | 270 | 1.0 | 3.0 | 0.00 | 0.00 | 0.00 | 47 | 1022.8 |
| 20260509062016 | 47 | 225 | 1.0 | 4.0 | 0.00 | 0.00 | 0.00 | 47 | 1022.9 |
| 20260509061016 | 47 | 225 | 2.0 | 5.0 | 0.00 | 0.00 | 0.00 | 47 | 1022.8 |
| 20260509060016 | 48 | 180 | 2.0 | 4.0 | 0.00 | 0.00 | 0.00 | 46 | 1023.0 |
| 20260509055018 | 49 | 248 | 1.0 | 3.0 | 0.00 | 0.00 | 0.00 | 44 | 1023.4 |
| 20260509054038 | 51 | 248 | 1.0 | 5.0 | 0.00 | 0.00 | 0.00 | 42 | 1023.6 |
| 20260509053017 | 52 | 270 | 2.0 | 5.0 | 0.00 | 0.00 | 0.00 | 40 | 1024.1 |
| 20260509052017 | 51 | 270 | 1.0 | 5.0 | 0.00 | 0.00 | 0.00 | 41 | 1023.7 |
| 20260509051017 | 50 | 248 | 1.0 | 3.0 | 0.00 | 0.00 | 0.00 | 44 | 1023.2 |
| 20260509050017 | 50 | 0.0 | 3.0 | 0.00 | 0.00 | 0.00 | 43 | 1023.5 | |
| 20260509045057 | 51 | 248 | 1.0 | 6.0 | 0.00 | 0.00 | 0.00 | 41 | 1023.4 |
| 20260509044017 | 54 | 0.0 | 2.0 | 0.00 | 0.00 | 0.00 | 37 | 1024.0 | |
| 20260509043017 | 53 | 0.0 | 0.0 | 0.00 | 0.00 | 0.00 | 39 | 1023.9 | |
| 20260509042037 | 53 | 0.0 | 4.0 | 0.00 | 0.00 | 0.00 | 38 | 1024.2 | |
| 20260509041017 | 54 | 0.0 | 3.0 | 0.00 | 0.00 | 0.00 | 37 | 1024.0 | |
| 20260509040037 | 57 | 0.0 | 2.0 | 0.00 | 0.00 | 0.00 | 34 | 1024.4 | |
| 20260509035017 | 58 | 0.0 | 0.0 | 0.00 | 0.00 | 0.00 | 32 | 1024.6 | |
| 20260509034017 | 58 | 0.0 | 3.0 | 0.00 | 0.00 | 0.00 | 32 | 1024.0 | |
| 20260509033017 | 58 | 0.0 | 0.0 | 0.00 | 0.00 | 0.00 | 32 | 1023.7 | |
| 20260509032017 | 58 | 0.0 | 2.0 | 0.00 | 0.00 | 0.00 | 32 | 1023.7 | |
| 20260509031017 | 59 | 0.0 | 3.0 | 0.00 | 0.00 | 0.00 | 31 | 1023.4 | |
| 20260509030017 | 59 | 45 | 1.0 | 4.0 | 0.00 | 0.00 | 0.00 | 30 | 1023.3 |
| 20260509025017 | 60 | 45 | 1.0 | 3.0 | 0.00 | 0.00 | 0.00 | 29 | 1023.4 |
| 20260509024017 | 61 | 45 | 1.0 | 4.0 | 0.00 | 0.00 | 0.00 | 28 | 1021.3 |
| 20260509023017 | 61 | 45 | 1.0 | 3.0 | 0.00 | 0.00 | 0.00 | 28 | 1021.0 |
| 20260509022017 | 62 | 45 | 1.0 | 3.0 | 0.00 | 0.00 | 0.00 | 28 | 1020.7 |
| 20260509021017 | 63 | 45 | 2.0 | 5.0 | 0.00 | 0.00 | 0.00 | 27 | 1019.3 |
| 20260509020017 | 64 | 68 | 1.0 | 4.0 | 0.00 | 0.00 | 0.00 | 26 | 1019.5 |
| 20260509015017 | 66 | 68 | 1.0 | 4.0 | 0.00 | 0.00 | 0.00 | 25 | 1019.7 |
| 20260509014037 | 67 | 68 | 1.0 | 4.0 | 0.00 | 0.00 | 0.00 | 24 | 1018.4 |
| 20260509013017 | 69 | 45 | 1.0 | 6.0 | 0.00 | 0.00 | 0.00 | 23 | 1018.6 |
| 20260509012037 | 71 | 68 | 1.0 | 6.0 | 0.00 | 0.00 | 0.00 | 22 | 1018.7 |
| 20260509011017 | 71 | 45 | 1.0 | 6.0 | 0.00 | 0.00 | 0.00 | 22 | 1018.1 |
| 20260509010017 | 71 | 90 | 1.0 | 7.0 | 0.00 | 0.00 | 0.00 | 22 | 1017.9 |
| 20260509005017 | 71 | 68 | 2.0 | 6.0 | 0.00 | 0.00 | 0.00 | 22 | 1017.8 |
| 20260509004016 | 73 | 45 | 2.0 | 7.0 | 0.00 | 0.00 | 0.00 | 21 | 1017.3 |
| 20260509003016 | 75 | 68 | 2.0 | 9.0 | 0.00 | 0.00 | 0.00 | 21 | 1017.7 |
| 20260509002037 | 75 | 0.0 | 4.0 | 0.00 | 0.00 | 0.00 | 20 | 1017.7 | |
| 20260509001017 | 75 | 45 | 1.0 | 5.0 | 0.00 | 0.00 | 0.00 | 20 | 1018.1 |
| 20260509000037 | 75 | 68 | 2.0 | 7.0 | 0.00 | 0.00 | 0.00 | 21 | 1018.2 |
| 20260508235017 | 74 | 135 | 1.0 | 3.0 | 0.00 | 0.00 | 0.00 | 21 | 1018.2 |
| 20260508234016 | 74 | 0.0 | 1.0 | 0.00 | 0.00 | 0.00 | 20 | 1018.0 | |
| 20260508233016 | 74 | 113 | 1.0 | 4.0 | 0.00 | 0.00 | 0.00 | 21 | 1018.1 |
| 20260508232016 | 75 | 45 | 2.0 | 7.0 | 0.00 | 0.00 | 0.00 | 20 | 1018.1 |
| 20260508231016 | 75 | 90 | 3.0 | 9.0 | 0.00 | 0.00 | 0.00 | 20 | 1017.7 |
| 20260508230017 | 76 | 68 | 3.0 | 12.0 | 0.00 | 0.00 | 0.00 | 20 | 1017.7 |
| 20260508225016 | 74 | 68 | 1.0 | 4.0 | 0.00 | 0.00 | 0.00 | 21 | 1017.2 |
| 20260508224016 | 74 | 68 | 2.0 | 6.0 | 0.00 | 0.00 | 0.00 | 21 | 1017.3 |
| 20260508223016 | 76 | 113 | 3.0 | 9.0 | 0.00 | 0.00 | 0.00 | 19 | 1018.0 |
| 20260508222016 | 77 | 270 | 2.0 | 8.0 | 0.00 | 0.00 | 0.00 | 20 | 1018.0 |
| 20260508221016 | 76 | 113 | 2.0 | 7.0 | 0.00 | 0.00 | 0.00 | 19 | 1018.2 |
| 20260508220016 | 76 | 113 | 3.0 | 11.0 | 0.00 | 0.00 | 0.00 | 20 | 1018.3 |
| 20260508215016 | 75 | 113 | 3.0 | 11.0 | 0.00 | 0.00 | 0.00 | 22 | 1018.3 |
| 20260508214016 | 73 | 90 | 2.0 | 6.0 | 0.00 | 0.00 | 0.00 | 22 | 1018.1 |
| 20260508213016 | 73 | 68 | 1.0 | 4.0 | 0.00 | 0.00 | 0.00 | 23 | 1018.2 |
| 20260508212056 | 74 | 90 | 2.0 | 6.0 | 0.00 | 0.00 | 0.00 | 22 | 1018.2 |
| 20260508211016 | 74 | 135 | 1.0 | 6.0 | 0.00 | 0.00 | 0.00 | 21 | 1018.8 |
| 20260508210016 | 75 | 135 | 1.0 | 7.0 | 0.00 | 0.00 | 0.00 | 21 | 1019.2 |
| 20260508205016 | 78 | 180 | 3.0 | 10.0 | 0.00 | 0.00 | 0.00 | 20 | 1019.8 |
| 20260508204016 | 76 | 270 | 3.0 | 11.0 | 0.00 | 0.00 | 0.00 | 21 | 1019.3 |
| 20260508203016 | 75 | 158 | 2.0 | 9.0 | 0.00 | 0.00 | 0.00 | 20 | 1019.4 |
| 20260508202036 | 77 | 180 | 2.0 | 5.0 | 0.00 | 0.00 | 0.00 | 20 | 1020.2 |
| 20260508201016 | 77 | 135 | 2.0 | 10.0 | 0.00 | 0.00 | 0.00 | 22 | 1020.5 |
| 20260508200016 | 75 | 158 | 2.0 | 7.0 | 0.00 | 0.00 | 0.00 | 22 | 1020.1 |
| 20260508195016 | 77 | 180 | 3.0 | 7.0 | 0.00 | 0.00 | 0.00 | 21 | 1020.4 |
| 20260508194016 | 74 | 90 | 4.0 | 12.0 | 0.00 | 0.00 | 0.00 | 20 | 1020.1 |
| 20260508193016 | 73 | 113 | 5.0 | 17.0 | 0.00 | 0.00 | 0.00 | 21 | 1019.7 |
| 20260508192016 | 75 | 113 | 3.0 | 9.0 | 0.00 | 0.00 | 0.00 | 19 | 1020.2 |
| 20260508191036 | 74 | 203 | 2.0 | 6.0 | 0.00 | 0.00 | 0.00 | 19 | 1020.1 |
| 20260508190016 | 73 | 90 | 2.0 | 9.0 | 0.00 | 0.00 | 0.00 | 19 | 1020.3 |
| 20260508185016 | 73 | 45 | 5.0 | 14.0 | 0.00 | 0.00 | 0.00 | 20 | 1020.5 |
| 20260508184016 | 73 | 45 | 2.0 | 9.0 | 0.00 | 0.00 | 0.00 | 20 | 1020.6 |
| 20260508183016 | 73 | 68 | 4.0 | 13.0 | 0.00 | 0.00 | 0.00 | 20 | 1020.9 |
| 20260508182016 | 73 | 45 | 4.0 | 12.0 | 0.00 | 0.00 | 0.00 | 21 | 1021.0 |
| 20260508181036 | 73 | 90 | 3.0 | 11.0 | 0.00 | 0.00 | 0.00 | 18 | 1022.0 |
| 20260508180016 | 74 | 45 | 3.0 | 10.0 | 0.00 | 0.00 | 0.00 | 18 | 1022.7 |
| 20260508175015 | 73 | 90 | 2.0 | 9.0 | 0.00 | 0.00 | 0.00 | 18 | 1022.4 |
| 20260508174035 | 72 | 45 | 3.0 | 12.0 | 0.00 | 0.00 | 0.00 | 18 | 1022.0 |
| 20260508173016 | 72 | 315 | 3.0 | 10.0 | 0.00 | 0.00 | 0.00 | 18 | 1022.0 |
| 20260508172015 | 72 | 338 | 3.0 | 10.0 | 0.00 | 0.00 | 0.00 | 18 | 1022.1 |
| 20260508171015 | 72 | 113 | 2.0 | 9.0 | 0.00 | 0.00 | 0.00 | 18 | 1023.3 |
| 20260508170038 | 71 | 90 | 3.0 | 7.0 | 0.00 | 0.00 | 0.00 | 18 | 1023.0 |
| 20260508165018 | 72 | 113 | 1.0 | 5.0 | 0.00 | 0.00 | 0.00 | 18 | 1023.5 |
| 20260508164017 | 71 | 113 | 2.0 | 8.0 | 0.00 | 0.00 | 0.00 | 18 | 1023.2 |
| 20260508163017 | 71 | 315 | 2.0 | 6.0 | 0.00 | 0.00 | 0.00 | 18 | 1023.3 |
| 20260508162017 | 72 | 90 | 2.0 | 9.0 | 0.00 | 0.00 | 0.00 | 19 | 1023.4 |
| 20260508161017 | 70 | 45 | 2.0 | 9.0 | 0.00 | 0.00 | 0.00 | 19 | 1024.1 |
| 20260508160017 | 70 | 135 | 1.0 | 4.0 | 0.00 | 0.00 | 0.00 | 19 | 1024.2 |
| 20260508155017 | 71 | 90 | 3.0 | 7.0 | 0.00 | 0.00 | 0.00 | 19 | 1024.1 |
| 20260508154018 | 69 | 90 | 3.0 | 9.0 | 0.00 | 0.00 | 0.00 | 20 | 1024.3 |
| 20260508153017 | 69 | 68 | 2.0 | 7.0 | 0.00 | 0.00 | 0.00 | 21 | 1024.2 |
| 20260508152017 | 68 | 113 | 1.0 | 6.0 | 0.00 | 0.00 | 0.00 | 20 | 1024.4 |